Time,TemperatureF,DewpointF,PressureIn,WindDirection,WindDirectionDegrees,WindSpeedMPH,WindSpeedGustMPH,Humidity,HourlyPrecipIn,Conditions,Clouds,dailyrainin,SoftwareType,DateUTC
2013-01-22 00:00:00,10.8,10.8,29.38,WNW,295,3.1,4.5,100,0.00,,---,0.00,VWS V14.00,2013-01-22 05:00:00,
2013-01-22 00:01:00,10.8,10.8,29.38,WNW,288,2.7,3.6,100,0.00,,---,0.00,VWS V14.00,2013-01-22 05:01:00,
2013-01-22 00:06:00,10.4,10.4,29.38,NNW,327,4.9,4.9,100,0.00,,---,0.00,VWS V14.00,2013-01-22 05:06:00,
2013-01-22 00:11:00,10.4,10.4,29.38,North,353,6.3,6.3,100,0.00,,---,0.00,VWS V14.00,2013-01-22 05:11:00,
2013-01-22 00:16:00,10.2,10.2,29.38,NW,319,3.6,4.0,100,0.00,,---,0.00,VWS V14.00,2013-01-22 05:16:00,
2013-01-22 00:21:00,10.0,10.0,29.38,NW,314,4.0,5.4,100,0.00,,---,0.00,VWS V14.00,2013-01-22 05:21:00,
2013-01-22 00:26:00,10.0,10.0,29.38,NNW,334,3.6,4.9,100,0.00,,---,0.00,VWS V14.00,2013-01-22 05:26:00,
2013-01-22 00:31:00,9.9,9.9,29.38,NW,319,3.6,4.0,100,0.00,,---,0.00,VWS V14.00,2013-01-22 05:31:00,
2013-01-22 00:36:00,9.7,9.7,29.38,North,0,3.1,5.4,100,0.00,,---,0.00,VWS V14.00,2013-01-22 05:36:00,
2013-01-22 00:41:00,9.7,9.7,29.38,NNW,335,3.6,5.4,100,0.00,,---,0.00,VWS V14.00,2013-01-22 05:41:00,
2013-01-22 00:46:00,9.7,9.7,29.38,WNW,297,4.9,6.3,100,0.00,,---,0.00,VWS V14.00,2013-01-22 05:46:00,
2013-01-22 00:51:00,9.5,9.5,29.38,NW,314,4.9,4.9,100,0.00,,---,0.00,VWS V14.00,2013-01-22 05:51:00,
2013-01-22 00:56:00,9.5,9.5,29.38,WNW,302,5.8,5.8,100,0.00,,---,0.00,VWS V14.00,2013-01-22 05:56:00,
2013-01-22 01:01:00,9.3,9.3,29.38,WNW,299,4.0,4.0,100,0.00,,---,0.00,VWS V14.00,2013-01-22 06:01:00,
2013-01-22 01:06:00,9.3,9.3,29.35,WNW,290,0.0,3.1,100,0.00,,---,0.00,VWS V14.00,2013-01-22 06:06:00,
2013-01-22 01:11:00,9.3,9.3,29.35,WNW,287,3.6,3.6,100,0.00,,---,0.00,VWS V14.00,2013-01-22 06:11:00,
2013-01-22 01:16:00,9.3,9.3,29.35,WNW,295,2.7,4.0,100,0.00,,---,0.00,VWS V14.00,2013-01-22 06:16:00,
2013-01-22 01:21:00,9.1,9.1,29.35,NW,305,2.2,3.6,100,0.00,,---,0.00,VWS V14.00,2013-01-22 06:21:00,
2013-01-22 01:26:00,9.1,9.1,29.35,WNW,297,4.0,4.0,100,0.00,,---,0.00,VWS V14.00,2013-01-22 06:26:00,
2013-01-22 01:31:00,9.1,9.1,29.35,WSW,248,4.9,4.9,100,0.00,,---,0.00,VWS V14.00,2013-01-22 06:31:00,
2013-01-22 01:36:00,9.1,9.1,29.35,West,261,4.0,6.3,100,0.00,,---,0.00,VWS V14.00,2013-01-22 06:36:00,
2013-01-22 01:41:00,9.1,9.1,29.35,WNW,291,2.7,5.8,100,0.00,,---,0.00,VWS V14.00,2013-01-22 06:41:00,
2013-01-22 01:46:00,9.0,9.0,29.35,West,281,2.7,3.6,100,0.00,,---,0.00,VWS V14.00,2013-01-22 06:46:00,
2013-01-22 01:51:00,8.8,8.8,29.38,West,273,4.0,4.9,100,0.00,,---,0.00,VWS V14.00,2013-01-22 06:51:00,
2013-01-22 01:56:00,8.8,8.8,29.38,NW,308,4.0,4.0,100,0.00,,---,0.00,VWS V14.00,2013-01-22 06:56:00,
2013-01-22 02:01:00,8.8,8.8,29.38,WNW,299,2.7,2.7,100,0.00,,---,0.00,VWS V14.00,2013-01-22 07:01:00,
2013-01-22 02:06:00,8.8,8.8,29.38,WNW,298,0.0,0.0,100,0.00,,---,0.00,VWS V14.00,2013-01-22 07:06:00,
2013-01-22 02:11:00,8.6,8.6,29.38,WNW,286,2.7,2.7,100,0.00,,---,0.00,VWS V14.00,2013-01-22 07:11:00,
2013-01-22 02:16:00,8.6,8.6,29.38,West,263,2.7,2.7,100,0.00,,---,0.00,VWS V14.00,2013-01-22 07:16:00,
2013-01-22 02:21:00,8.8,8.8,29.38,NW,307,3.1,3.1,100,0.00,,---,0.00,VWS V14.00,2013-01-22 07:21:00,
2013-01-22 02:26:00,9.0,9.0,29.38,West,277,3.6,4.0,100,0.00,,---,0.00,VWS V14.00,2013-01-22 07:26:00,
2013-01-22 02:31:00,8.8,8.8,29.38,West,267,4.0,4.0,100,0.00,,---,0.00,VWS V14.00,2013-01-22 07:31:00,
2013-01-22 02:36:00,8.8,8.8,29.38,WNW,291,2.7,5.4,100,0.00,,---,0.00,VWS V14.00,2013-01-22 07:36:00,
2013-01-22 02:41:00,8.6,8.6,29.38,NNW,334,0.0,0.0,100,0.00,,---,0.00,VWS V14.00,2013-01-22 07:41:00,
2013-01-22 02:46:00,8.6,8.6,29.38,NNW,334,4.0,6.3,100,0.00,,---,0.00,VWS V14.00,2013-01-22 07:46:00,
2013-01-22 02:51:00,8.6,8.6,29.38,NW,325,5.4,5.4,100,0.00,,---,0.00,VWS V14.00,2013-01-22 07:51:00,
2013-01-22 02:56:00,8.6,8.6,29.38,WNW,298,2.7,2.7,100,0.00,,---,0.00,VWS V14.00,2013-01-22 07:56:00,
2013-01-22 03:01:00,8.6,8.6,29.38,NW,310,4.0,4.0,100,0.00,,---,0.00,VWS V14.00,2013-01-22 08:01:00,
2013-01-22 03:06:00,8.6,8.6,29.38,NW,308,3.6,3.6,100,0.00,,---,0.00,VWS V14.00,2013-01-22 08:06:00,
2013-01-22 03:11:00,8.6,8.6,29.38,WNW,293,4.0,4.0,100,0.00,,---,0.00,VWS V14.00,2013-01-22 08:11:00,
2013-01-22 03:16:00,8.6,8.6,29.38,WNW,300,4.0,4.0,100,0.00,,---,0.00,VWS V14.00,2013-01-22 08:16:00,
2013-01-22 03:21:00,8.4,8.4,29.38,WNW,289,2.2,3.1,100,0.00,,---,0.00,VWS V14.00,2013-01-22 08:21:00,
2013-01-22 03:26:00,8.4,8.4,29.38,NNW,339,3.6,5.4,100,0.00,,---,0.00,VWS V14.00,2013-01-22 08:26:00,
2013-01-22 03:31:00,8.4,8.4,29.38,NW,323,2.7,4.0,100,0.00,,---,0.00,VWS V14.00,2013-01-22 08:31:00,
2013-01-22 03:36:00,8.2,8.2,29.38,NW,313,3.6,3.6,100,0.00,,---,0.00,VWS V14.00,2013-01-22 08:36:00,
2013-01-22 03:41:00,8.2,8.2,29.38,WNW,300,4.0,4.0,100,0.00,,---,0.00,VWS V14.00,2013-01-22 08:41:00,
2013-01-22 03:46:00,8.1,8.1,29.38,NW,308,3.6,4.0,100,0.00,,---,0.00,VWS V14.00,2013-01-22 08:46:00,
2013-01-22 03:51:00,7.9,7.9,29.38,NW,307,0.0,2.2,100,0.00,,---,0.00,VWS V14.00,2013-01-22 08:51:00,
2013-01-22 03:56:00,7.9,7.9,29.38,WNW,303,3.1,3.1,100,0.00,,---,0.00,VWS V14.00,2013-01-22 08:56:00,
2013-01-22 04:01:00,7.9,7.9,29.38,NW,325,3.1,4.0,100,0.00,,---,0.00,VWS V14.00,2013-01-22 09:01:00,
2013-01-22 04:06:00,7.7,7.7,29.38,WNW,297,2.7,3.6,100,0.00,,---,0.00,VWS V14.00,2013-01-22 09:06:00,
2013-01-22 04:11:00,7.7,7.7,29.38,NW,324,0.0,0.0,100,0.00,,---,0.00,VWS V14.00,2013-01-22 09:11:00,
2013-01-22 04:16:00,7.5,7.5,29.38,WNW,298,0.0,0.0,100,0.00,,---,0.00,VWS V14.00,2013-01-22 09:16:00,
2013-01-22 04:21:00,7.5,7.5,29.38,NW,323,0.0,0.0,100,0.00,,---,0.00,VWS V14.00,2013-01-22 09:21:00,
2013-01-22 04:26:00,7.5,7.5,29.38,NW,321,2.2,4.0,100,0.00,,---,0.00,VWS V14.00,2013-01-22 09:26:00,
2013-01-22 04:31:00,7.3,7.3,29.38,NW,313,4.0,5.4,100,0.00,,---,0.00,VWS V14.00,2013-01-22 09:31:00,
2013-01-22 04:36:00,7.2,7.2,29.38,NW,326,3.1,4.0,100,0.00,,---,0.00,VWS V14.00,2013-01-22 09:36:00,
2013-01-22 04:41:00,7.2,7.2,29.38,NW,323,4.0,4.0,100,0.00,,---,0.00,VWS V14.00,2013-01-22 09:41:00,
2013-01-22 04:46:00,7.0,7.0,29.38,NNW,342,4.0,4.0,100,0.00,,---,0.00,VWS V14.00,2013-01-22 09:46:00,
2013-01-22 04:51:00,7.0,7.0,29.38,NNW,333,2.7,5.4,100,0.00,,---,0.00,VWS V14.00,2013-01-22 09:51:00,
2013-01-22 04:56:00,7.0,7.0,29.38,NW,307,3.1,4.9,100,0.00,,---,0.00,VWS V14.00,2013-01-22 09:56:00,
2013-01-22 05:01:00,7.0,7.0,29.38,NNW,330,7.6,7.6,100,0.00,,---,0.00,VWS V14.00,2013-01-22 10:01:00,
2013-01-22 05:06:00,6.8,6.8,29.38,WNW,299,3.6,4.9,100,0.00,,---,0.00,VWS V14.00,2013-01-22 10:06:00,
2013-01-22 05:11:00,6.8,6.8,29.38,NW,321,5.8,5.8,100,0.00,,---,0.00,VWS V14.00,2013-01-22 10:11:00,
2013-01-22 05:16:00,6.8,6.8,29.38,NW,315,4.0,6.3,100,0.00,,---,0.00,VWS V14.00,2013-01-22 10:16:00,
2013-01-22 05:21:00,6.6,6.6,29.38,NNW,334,0.0,0.0,100,0.00,,---,0.00,VWS V14.00,2013-01-22 10:21:00,
2013-01-22 05:26:00,6.3,6.3,29.38,NW,308,0.0,3.1,100,0.00,,---,0.00,VWS V14.00,2013-01-22 10:26:00,
2013-01-22 05:31:00,6.1,6.1,29.38,NNW,328,0.0,0.0,100,0.00,,---,0.00,VWS V14.00,2013-01-22 10:31:00,
2013-01-22 05:36:00,6.3,6.3,29.41,NW,314,0.0,3.1,100,0.00,,---,0.00,VWS V14.00,2013-01-22 10:36:00,
2013-01-22 05:41:00,6.1,6.1,29.41,NNW,337,0.0,0.0,100,0.00,,---,0.00,VWS V14.00,2013-01-22 10:41:00,
2013-01-22 05:46:00,6.1,6.1,29.41,NW,322,0.0,0.0,100,0.00,,---,0.00,VWS V14.00,2013-01-22 10:46:00,
2013-01-22 05:51:00,5.9,5.9,29.41,NNW,337,0.0,0.0,100,0.00,,---,0.00,VWS V14.00,2013-01-22 10:51:00,
2013-01-22 05:56:00,5.9,5.9,29.41,NNW,338,0.0,2.7,100,0.00,,---,0.00,VWS V14.00,2013-01-22 10:56:00,
2013-01-22 06:01:00,5.9,5.9,29.41,NW,318,0.0,0.0,100,0.00,,---,0.00,VWS V14.00,2013-01-22 11:01:00,
2013-01-22 06:06:00,5.7,5.7,29.41,NW,317,0.0,0.0,100,0.00,,---,0.00,VWS V14.00,2013-01-22 11:06:00,
2013-01-22 06:11:00,5.5,5.5,29.41,NW,308,0.0,0.0,100,0.00,,---,0.00,VWS V14.00,2013-01-22 11:11:00,
2013-01-22 06:16:00,5.5,5.5,29.41,NW,309,0.0,0.0,100,0.00,,---,0.00,VWS V14.00,2013-01-22 11:16:00,
2013-01-22 06:21:00,5.4,5.4,29.41,NW,312,0.0,0.0,100,0.00,,---,0.00,VWS V14.00,2013-01-22 11:21:00,
2013-01-22 06:26:00,5.2,5.2,29.41,NW,315,0.0,0.0,100,0.00,,---,0.00,VWS V14.00,2013-01-22 11:26:00,
2013-01-22 06:31:00,5.4,5.4,29.41,NNW,327,0.0,0.0,100,0.00,,---,0.00,VWS V14.00,2013-01-22 11:31:00,
2013-01-22 06:36:00,5.4,5.4,29.41,NW,313,0.0,2.7,100,0.00,,---,0.00,VWS V14.00,2013-01-22 11:36:00,
2013-01-22 06:41:00,5.4,5.4,29.41,NW,312,0.0,0.0,100,0.00,,---,0.00,VWS V14.00,2013-01-22 11:41:00,
2013-01-22 06:46:00,5.4,5.4,29.41,WNW,303,0.0,0.0,100,0.00,,---,0.00,VWS V14.00,2013-01-22 11:46:00,
2013-01-22 06:51:00,5.4,5.4,29.44,WNW,295,0.0,0.0,100,0.00,,---,0.00,VWS V14.00,2013-01-22 11:51:00,
2013-01-22 06:56:00,5.4,5.4,29.44,SW,224,0.0,0.0,100,0.00,,---,0.00,VWS V14.00,2013-01-22 11:56:00,
2013-01-22 07:01:00,5.2,5.2,29.44,WNW,288,2.7,2.7,100,0.00,,---,0.00,VWS V14.00,2013-01-22 12:01:00,
2013-01-22 07:06:00,5.2,5.2,29.44,West,278,2.7,4.9,100,0.00,,---,0.00,VWS V14.00,2013-01-22 12:06:00,
2013-01-22 07:11:00,5.2,5.2,29.44,NW,306,4.0,4.9,100,0.00,,---,0.00,VWS V14.00,2013-01-22 12:11:00,
2013-01-22 07:16:00,5.4,5.4,29.44,NW,315,2.7,5.8,100,0.00,,---,0.00,VWS V14.00,2013-01-22 12:16:00,
2013-01-22 07:21:00,5.2,5.2,29.44,NW,314,3.1,3.1,100,0.00,,---,0.00,VWS V14.00,2013-01-22 12:21:00,
2013-01-22 07:26:00,5.2,5.2,29.44,WNW,288,2.7,4.0,100,0.00,,---,0.00,VWS V14.00,2013-01-22 12:26:00,
2013-01-22 07:32:00,5.2,5.2,29.44,NW,321,3.1,3.1,100,0.00,,---,0.00,VWS V14.00,2013-01-22 12:32:00,
2013-01-22 07:37:00,5.4,5.4,29.44,WNW,286,3.1,3.1,100,0.00,,---,0.00,VWS V14.00,2013-01-22 12:37:00,
2013-01-22 07:42:00,5.2,5.2,29.44,NW,326,3.1,4.0,100,0.00,,---,0.00,VWS V14.00,2013-01-22 12:42:00,
2013-01-22 07:47:00,5.2,5.2,29.44,WNW,300,0.0,0.0,100,0.00,,---,0.00,VWS V14.00,2013-01-22 12:47:00,
2013-01-22 07:52:00,5.2,5.2,29.44,West,279,3.1,4.0,100,0.00,,---,0.00,VWS V14.00,2013-01-22 12:52:00,
2013-01-22 07:57:00,5.2,5.2,29.44,West,281,2.7,2.7,100,0.00,,---,0.00,VWS V14.00,2013-01-22 12:57:00,
2013-01-22 08:02:00,5.2,5.2,29.44,WNW,286,3.1,4.9,100,0.00,,---,0.00,VWS V14.00,2013-01-22 13:02:00,
2013-01-22 08:07:00,5.2,5.2,29.44,NNW,342,0.0,0.0,100,0.00,,---,0.00,VWS V14.00,2013-01-22 13:07:00,
2013-01-22 08:12:00,5.2,5.2,29.44,WNW,301,2.7,5.4,100,0.00,,---,0.00,VWS V14.00,2013-01-22 13:12:00,
2013-01-22 08:17:00,5.4,5.4,29.44,WNW,287,3.1,4.0,100,0.00,,---,0.00,VWS V14.00,2013-01-22 13:17:00,
2013-01-22 08:23:00,5.5,5.5,29.47,WNW,300,0.0,0.0,100,0.00,,---,0.00,VWS V14.00,2013-01-22 13:23:00,
2013-01-22 08:27:00,5.5,5.5,29.47,NNW,329,2.7,3.1,100,0.00,,---,0.00,VWS V14.00,2013-01-22 13:27:00,
2013-01-22 08:32:00,5.9,5.9,29.47,WNW,290,4.0,6.3,100,0.00,,---,0.00,VWS V14.00,2013-01-22 13:32:00,
2013-01-22 08:37:00,6.1,6.1,29.47,WNW,301,3.6,4.9,100,0.00,,---,0.00,VWS V14.00,2013-01-22 13:37:00,
2013-01-22 08:42:00,6.3,6.3,29.47,NW,317,4.0,5.4,100,0.00,,---,0.00,VWS V14.00,2013-01-22 13:42:00,
2013-01-22 08:47:00,6.6,6.6,29.47,WNW,287,3.1,5.8,100,0.00,,---,0.00,VWS V14.00,2013-01-22 13:47:00,
2013-01-22 08:52:00,6.8,6.8,29.47,NNE,20,3.6,5.4,100,0.00,,---,0.00,VWS V14.00,2013-01-22 13:52:00,
2013-01-22 08:57:00,7.0,7.0,29.47,WNW,301,4.0,4.0,100,0.00,,---,0.00,VWS V14.00,2013-01-22 13:57:00,
2013-01-22 09:02:00,7.0,7.0,29.47,NW,321,2.7,5.4,100,0.00,,---,0.00,VWS V14.00,2013-01-22 14:02:00,
2013-01-22 09:07:00,7.0,7.0,29.47,WNW,289,0.0,2.2,100,0.00,,---,0.00,VWS V14.00,2013-01-22 14:07:00,
2013-01-22 09:12:00,7.2,7.2,29.47,WNW,290,4.0,7.2,100,0.00,,---,0.00,VWS V14.00,2013-01-22 14:12:00,
2013-01-22 09:17:00,7.5,7.5,29.47,NW,305,5.4,5.4,100,0.00,,---,0.00,VWS V14.00,2013-01-22 14:17:00,
2013-01-22 09:22:00,7.7,7.7,29.47,NNW,332,4.0,5.8,100,0.00,,---,0.00,VWS V14.00,2013-01-22 14:22:00,
2013-01-22 09:27:00,8.1,8.1,29.47,WNW,283,2.7,2.7,100,0.00,,---,0.00,VWS V14.00,2013-01-22 14:27:00,
2013-01-22 09:32:00,8.4,8.4,29.47,WNW,287,3.6,5.4,100,0.00,,---,0.00,VWS V14.00,2013-01-22 14:32:00,
2013-01-22 09:37:00,8.6,8.6,29.47,West,271,3.1,3.6,100,0.00,,---,0.00,VWS V14.00,2013-01-22 14:37:00,
2013-01-22 09:42:00,8.8,8.8,29.47,WNW,289,3.1,5.4,100,0.00,,---,0.00,VWS V14.00,2013-01-22 14:42:00,
2013-01-22 09:47:00,8.8,8.8,29.47,West,276,3.6,4.9,100,0.00,,---,0.00,VWS V14.00,2013-01-22 14:47:00,
2013-01-22 09:52:00,9.5,9.5,29.47,WSW,258,2.2,3.6,100,0.00,,---,0.00,VWS V14.00,2013-01-22 14:52:00,
2013-01-22 09:57:00,9.5,9.5,29.47,WSW,237,7.2,7.2,100,0.00,,---,0.00,VWS V14.00,2013-01-22 14:57:00,
2013-01-22 10:02:00,9.5,9.5,29.47,NW,304,2.7,4.0,100,0.00,,---,0.00,VWS V14.00,2013-01-22 15:02:00,
2013-01-22 10:07:00,9.9,9.9,29.50,NW,306,0.0,0.0,100,0.00,,---,0.00,VWS V14.00,2013-01-22 15:07:00,
2013-01-22 10:12:00,10.6,10.6,29.50,North,353,4.0,4.0,100,0.00,,---,0.00,VWS V14.00,2013-01-22 15:12:00,
2013-01-22 10:17:00,10.0,10.0,29.50,WSW,255,5.8,5.8,100,0.00,,---,0.00,VWS V14.00,2013-01-22 15:17:00,
2013-01-22 10:22:00,10.0,10.0,29.50,WNW,296,4.0,5.4,100,0.00,,---,0.00,VWS V14.00,2013-01-22 15:22:00,
2013-01-22 10:27:00,10.8,10.8,29.50,WNW,300,2.7,3.1,100,0.00,,---,0.00,VWS V14.00,2013-01-22 15:27:00,
2013-01-22 10:32:00,10.6,10.6,29.50,WNW,285,6.3,8.1,100,0.00,,---,0.00,VWS V14.00,2013-01-22 15:32:00,
2013-01-22 10:37:00,11.1,11.1,29.50,WSW,237,4.9,7.6,100,0.00,,---,0.00,VWS V14.00,2013-01-22 15:37:00,
2013-01-22 10:42:00,12.2,12.2,29.50,WSW,255,5.4,6.3,100,0.00,,---,0.00,VWS V14.00,2013-01-22 15:42:00,
2013-01-22 10:47:00,12.0,12.0,29.50,SSW,211,6.3,8.1,100,0.00,,---,0.00,VWS V14.00,2013-01-22 15:47:00,
2013-01-22 10:52:00,12.4,12.4,29.50,WNW,290,4.0,7.6,100,0.00,,---,0.00,VWS V14.00,2013-01-22 15:52:00,
2013-01-22 10:57:00,12.2,12.2,29.50,West,273,3.6,3.6,100,0.00,,---,0.00,VWS V14.00,2013-01-22 15:57:00,
2013-01-22 11:02:00,12.6,12.6,29.50,SW,226,5.4,5.4,100,0.00,,---,0.00,VWS V14.00,2013-01-22 16:02:00,
2013-01-22 11:08:00,11.7,11.7,29.50,SW,234,4.0,4.0,100,0.00,,---,0.00,VWS V14.00,2013-01-22 16:08:00,
2013-01-22 11:13:00,12.0,12.0,29.50,SSW,206,4.0,4.0,100,0.00,,---,0.00,VWS V14.00,2013-01-22 16:13:00,
2013-01-22 11:17:00,12.7,12.7,29.50,NW,306,3.6,4.0,100,0.00,,---,0.00,VWS V14.00,2013-01-22 16:17:00,
2013-01-22 11:22:00,13.1,13.1,29.50,West,279,4.0,4.0,100,0.00,,---,0.00,VWS V14.00,2013-01-22 16:22:00,
2013-01-22 11:28:00,14.2,14.2,29.50,North,0,4.0,6.7,100,0.00,,---,0.00,VWS V14.00,2013-01-22 16:28:00,
2013-01-22 11:33:00,13.3,13.3,29.50,West,278,5.8,6.7,100,0.00,,---,0.00,VWS V14.00,2013-01-22 16:33:00,
2013-01-22 11:38:00,12.4,12.4,29.50,NNW,338,3.6,4.9,100,0.00,,---,0.00,VWS V14.00,2013-01-22 16:38:00,
2013-01-22 11:43:00,11.3,11.3,29.50,NW,322,4.9,5.8,100,0.00,,---,0.00,VWS V14.00,2013-01-22 16:43:00,
2013-01-22 11:48:00,11.8,11.8,29.50,WNW,284,0.0,2.7,100,0.00,,---,0.00,VWS V14.00,2013-01-22 16:48:00,
2013-01-22 11:53:00,14.7,14.7,29.50,West,264,5.8,5.8,100,0.00,,---,0.00,VWS V14.00,2013-01-22 16:53:00,
2013-01-22 11:58:00,14.9,14.9,29.50,NW,312,6.3,7.6,100,0.00,,---,0.00,VWS V14.00,2013-01-22 16:58:00,
2013-01-22 12:03:00,16.0,16.0,29.50,West,268,6.3,6.3,100,0.00,,---,0.00,VWS V14.00,2013-01-22 17:03:00,
2013-01-22 12:08:00,14.4,14.4,29.47,West,280,6.3,8.3,100,0.00,,---,0.00,VWS V14.00,2013-01-22 17:08:00,
2013-01-22 12:13:00,12.9,12.9,29.47,WNW,289,3.1,3.1,100,0.00,,---,0.00,VWS V14.00,2013-01-22 17:13:00,
2013-01-22 12:18:00,14.4,14.4,29.47,WNW,293,4.0,7.6,100,0.00,,---,0.00,VWS V14.00,2013-01-22 17:18:00,
2013-01-22 12:23:00,14.9,14.9,29.47,SSW,210,5.4,5.8,100,0.00,,---,0.00,VWS V14.00,2013-01-22 17:23:00,
2013-01-22 12:28:00,16.3,16.3,29.47,West,281,4.0,4.0,100,0.00,,---,0.00,VWS V14.00,2013-01-22 17:28:00,
2013-01-22 12:33:00,16.7,16.7,29.47,SW,236,5.8,5.8,100,0.00,,---,0.00,VWS V14.00,2013-01-22 17:33:00,
2013-01-22 12:38:00,17.6,17.6,29.47,WNW,292,4.0,4.0,100,0.00,,---,0.00,VWS V14.00,2013-01-22 17:38:00,
2013-01-22 12:43:00,16.2,16.2,29.47,WNW,301,4.5,4.5,100,0.00,,---,0.00,VWS V14.00,2013-01-22 17:43:00,
2013-01-22 12:48:00,16.5,16.5,29.47,NW,304,2.7,2.7,100,0.00,,---,0.00,VWS V14.00,2013-01-22 17:48:00,
2013-01-22 12:53:00,17.8,17.8,29.47,WSW,244,7.2,7.2,100,0.00,,---,0.00,VWS V14.00,2013-01-22 17:53:00,
2013-01-22 12:58:00,17.8,17.8,29.47,SSW,201,5.8,6.3,100,0.00,,---,0.00,VWS V14.00,2013-01-22 17:58:00,
2013-01-22 13:03:00,17.8,17.8,29.47,WNW,285,2.7,4.0,100,0.00,,---,0.00,VWS V14.00,2013-01-22 18:03:00,
2013-01-22 13:08:00,17.8,17.8,29.44,NW,316,4.9,4.9,100,0.00,,---,0.00,VWS V14.00,2013-01-22 18:08:00,
2013-01-22 13:13:00,17.8,17.8,29.44,NNW,343,3.1,5.8,100,0.00,,---,0.00,VWS V14.00,2013-01-22 18:13:00,
2013-01-22 13:18:00,19.2,19.2,29.44,WSW,242,3.6,6.3,100,0.00,,---,0.00,VWS V14.00,2013-01-22 18:18:00,
2013-01-22 13:23:00,19.8,19.8,29.44,WNW,297,4.0,5.8,100,0.00,,---,0.00,VWS V14.00,2013-01-22 18:23:00,
2013-01-22 13:28:00,19.2,19.2,29.44,WNW,283,5.4,5.4,100,0.00,,---,0.00,VWS V14.00,2013-01-22 18:28:00,
2013-01-22 13:33:00,18.3,18.3,29.44,NW,321,4.9,4.9,100,0.00,,---,0.00,VWS V14.00,2013-01-22 18:33:00,
2013-01-22 13:38:00,17.6,17.6,29.44,WSW,244,5.8,5.8,100,0.00,,---,0.00,VWS V14.00,2013-01-22 18:38:00,
2013-01-22 13:43:00,17.8,17.8,29.44,SW,232,3.1,4.9,100,0.00,,---,0.00,VWS V14.00,2013-01-22 18:43:00,
2013-01-22 13:48:00,19.8,19.8,29.44,NW,313,0.0,0.0,100,0.00,,---,0.00,VWS V14.00,2013-01-22 18:48:00,
2013-01-22 13:53:00,19.2,19.2,29.44,West,266,7.2,7.2,100,0.00,,---,0.00,VWS V14.00,2013-01-22 18:53:00,
2013-01-22 13:58:00,20.1,20.1,29.44,WNW,283,6.3,6.3,100,0.00,,---,0.00,VWS V14.00,2013-01-22 18:58:00,
2013-01-22 14:03:00,20.1,20.1,29.44,WSW,250,5.4,7.6,100,0.00,,---,0.00,VWS V14.00,2013-01-22 19:03:00,
2013-01-22 14:08:00,19.8,19.8,29.44,WSW,250,5.4,5.8,100,0.00,,---,0.00,VWS V14.00,2013-01-22 19:08:00,
2013-01-22 14:13:00,19.0,19.0,29.44,NW,304,6.3,8.3,100,0.00,,---,0.00,VWS V14.00,2013-01-22 19:13:00,
2013-01-22 14:18:00,18.5,18.5,29.44,WNW,297,3.1,4.0,100,0.00,,---,0.00,VWS V14.00,2013-01-22 19:18:00,
2013-01-22 14:23:00,18.5,18.5,29.41,NNW,328,3.6,5.8,100,0.00,,---,0.00,VWS V14.00,2013-01-22 19:23:00,
2013-01-22 14:28:00,19.2,19.2,29.41,SW,229,7.2,7.2,100,0.00,,---,0.00,VWS V14.00,2013-01-22 19:28:00,
2013-01-22 14:33:00,19.6,19.6,29.41,NW,305,5.8,6.7,100,0.00,,---,0.00,VWS V14.00,2013-01-22 19:33:00,
2013-01-22 14:38:00,19.9,19.9,29.41,WSW,246,6.3,6.3,100,0.00,,---,0.00,VWS V14.00,2013-01-22 19:38:00,
2013-01-22 14:43:00,20.1,20.1,29.41,West,266,6.3,6.3,100,0.00,,---,0.00,VWS V14.00,2013-01-22 19:43:00,
2013-01-22 14:48:00,19.8,19.8,29.41,NNW,343,5.4,6.3,100,0.00,,---,0.00,VWS V14.00,2013-01-22 19:48:00,
2013-01-22 14:53:00,19.4,19.4,29.41,NW,314,3.1,4.9,100,0.00,,---,0.00,VWS V14.00,2013-01-22 19:53:00,
2013-01-22 14:58:00,19.8,19.8,29.41,NW,307,7.6,7.6,100,0.00,,---,0.00,VWS V14.00,2013-01-22 19:58:00,
2013-01-22 15:03:00,19.4,19.4,29.41,WNW,295,4.9,4.9,100,0.00,,---,0.00,VWS V14.00,2013-01-22 20:03:00,
2013-01-22 15:08:00,19.4,19.4,29.44,WNW,299,7.6,7.6,100,0.00,,---,0.00,VWS V14.00,2013-01-22 20:08:00,
2013-01-22 15:13:00,20.1,20.1,29.44,NW,314,2.7,3.6,100,0.00,,---,0.00,VWS V14.00,2013-01-22 20:13:00,
2013-01-22 15:18:00,19.2,19.2,29.44,WNW,297,5.8,7.6,100,0.00,,---,0.00,VWS V14.00,2013-01-22 20:18:00,
2013-01-22 15:23:00,19.0,19.0,29.44,WNW,303,6.3,6.3,100,0.00,,---,0.00,VWS V14.00,2013-01-22 20:23:00,
2013-01-22 15:28:00,19.6,19.6,29.44,SW,230,2.7,6.3,100,0.00,,---,0.00,VWS V14.00,2013-01-22 20:28:00,
2013-01-22 15:33:00,19.9,19.9,29.44,NW,320,3.6,4.9,100,0.00,,---,0.00,VWS V14.00,2013-01-22 20:33:00,
2013-01-22 15:38:00,19.9,19.9,29.44,West,266,6.7,6.7,100,0.00,,---,0.00,VWS V14.00,2013-01-22 20:38:00,
2013-01-22 15:43:00,20.3,20.3,29.44,SSW,203,8.1,8.1,100,0.00,,---,0.00,VWS V14.00,2013-01-22 20:43:00,
2013-01-22 15:48:00,19.9,19.9,29.44,NW,304,3.1,4.0,100,0.00,,---,0.00,VWS V14.00,2013-01-22 20:48:00,
2013-01-22 15:53:00,19.6,19.6,29.44,West,264,9.6,11.9,100,0.00,,---,0.00,VWS V14.00,2013-01-22 20:53:00,
2013-01-22 15:58:00,19.4,19.4,29.44,West,273,3.6,4.9,100,0.00,,---,0.00,VWS V14.00,2013-01-22 20:58:00,
2013-01-22 16:03:00,19.9,19.9,29.44,SW,235,5.8,6.3,100,0.00,,---,0.00,VWS V14.00,2013-01-22 21:03:00,
2013-01-22 16:08:00,19.8,19.8,29.44,WNW,286,4.0,4.0,100,0.00,,---,0.00,VWS V14.00,2013-01-22 21:08:00,
2013-01-22 16:13:00,19.0,19.0,29.44,WNW,298,5.4,5.4,100,0.00,,---,0.00,VWS V14.00,2013-01-22 21:13:00,
2013-01-22 16:18:00,19.4,19.4,29.44,West,266,11.0,11.0,100,0.00,,---,0.00,VWS V14.00,2013-01-22 21:18:00,
2013-01-22 16:23:00,19.4,19.4,29.44,WNW,282,5.4,5.8,100,0.00,,---,0.00,VWS V14.00,2013-01-22 21:23:00,
2013-01-22 16:28:00,19.8,19.8,29.44,WNW,289,5.4,5.8,100,0.00,,---,0.00,VWS V14.00,2013-01-22 21:28:00,
2013-01-22 16:31:00,19.6,19.6,29.44,WSW,248,3.6,3.6,100,0.00,,---,0.00,VWS V14.00,2013-01-22 21:31:00,
2013-01-22 16:36:00,20.1,20.1,29.44,WNW,283,6.3,6.3,100,0.00,,---,0.00,VWS V14.00,2013-01-22 21:36:00,
2013-01-22 16:42:00,19.4,19.4,29.44,WSW,254,8.3,8.3,100,0.00,,---,0.00,VWS V14.00,2013-01-22 21:42:00,
2013-01-22 16:47:00,19.2,19.2,29.44,WNW,285,5.4,7.2,100,0.00,,---,0.00,VWS V14.00,2013-01-22 21:47:00,
2013-01-22 16:52:00,19.0,19.0,29.44,WNW,291,3.6,5.8,100,0.00,,---,0.00,VWS V14.00,2013-01-22 21:52:00,
2013-01-22 16:57:00,17.4,17.4,29.44,WNW,287,7.2,7.2,100,0.00,,---,0.00,VWS V14.00,2013-01-22 21:57:00,
2013-01-22 17:02:00,17.1,17.1,29.44,WNW,299,4.0,4.0,100,0.00,,---,0.00,VWS V14.00,2013-01-22 22:02:00,
2013-01-22 17:07:00,16.7,16.7,29.44,WNW,283,4.9,5.8,100,0.00,,---,0.00,VWS V14.00,2013-01-22 22:07:00,
2013-01-22 17:12:00,16.7,16.7,29.44,WSW,252,3.1,3.1,100,0.00,,---,0.00,VWS V14.00,2013-01-22 22:12:00,
2013-01-22 17:17:00,16.7,16.7,29.44,West,264,4.9,4.9,100,0.00,,---,0.00,VWS V14.00,2013-01-22 22:17:00,
2013-01-22 17:22:00,16.5,16.5,29.44,West,263,5.8,6.3,100,0.00,,---,0.00,VWS V14.00,2013-01-22 22:22:00,
2013-01-22 17:27:00,16.2,16.2,29.44,West,279,4.0,5.8,100,0.00,,---,0.00,VWS V14.00,2013-01-22 22:27:00,
2013-01-22 17:32:00,16.0,16.0,29.44,West,269,3.6,6.3,100,0.00,,---,0.00,VWS V14.00,2013-01-22 22:32:00,
2013-01-22 17:37:00,15.8,15.8,29.44,WNW,286,4.0,6.3,100,0.00,,---,0.00,VWS V14.00,2013-01-22 22:37:00,
2013-01-22 17:42:00,15.4,15.4,29.44,WNW,294,4.0,4.0,100,0.00,,---,0.00,VWS V14.00,2013-01-22 22:42:00,
2013-01-22 17:47:00,15.3,15.3,29.44,WSW,238,4.0,4.0,100,0.00,,---,0.00,VWS V14.00,2013-01-22 22:47:00,
2013-01-22 17:52:00,15.3,15.3,29.44,West,259,0.0,0.0,100,0.00,,---,0.00,VWS V14.00,2013-01-22 22:52:00,
2013-01-22 17:57:00,15.1,15.1,29.44,West,260,2.2,2.2,100,0.00,,---,0.00,VWS V14.00,2013-01-22 22:57:00,
2013-01-22 18:02:00,14.9,14.9,29.44,West,265,3.1,3.1,100,0.00,,---,0.00,VWS V14.00,2013-01-22 23:02:00,
2013-01-22 18:07:00,14.9,14.9,29.44,West,281,3.6,4.0,100,0.00,,---,0.00,VWS V14.00,2013-01-22 23:07:00,
2013-01-22 18:12:00,14.7,14.7,29.44,West,274,0.0,3.1,100,0.00,,---,0.00,VWS V14.00,2013-01-22 23:12:00,
2013-01-22 18:17:00,14.5,14.5,29.44,West,276,6.3,6.3,100,0.00,,---,0.00,VWS V14.00,2013-01-22 23:17:00,
2013-01-22 18:22:00,14.5,14.5,29.41,WSW,252,2.7,3.1,100,0.00,,---,0.00,VWS V14.00,2013-01-22 23:22:00,
2013-01-22 18:27:00,14.4,14.4,29.41,WSW,251,2.2,2.2,100,0.00,,---,0.00,VWS V14.00,2013-01-22 23:27:00,
2013-01-22 18:32:00,14.2,14.2,29.41,West,263,2.7,2.7,100,0.00,,---,0.00,VWS V14.00,2013-01-22 23:32:00,
2013-01-22 18:37:00,14.4,14.4,29.44,WSW,239,0.0,0.0,100,0.00,,---,0.00,VWS V14.00,2013-01-22 23:37:00,
2013-01-22 18:42:00,14.4,14.4,29.44,West,266,3.1,3.6,100,0.00,,---,0.00,VWS V14.00,2013-01-22 23:42:00,
2013-01-22 18:47:00,14.4,14.4,29.44,WSW,256,0.0,0.0,100,0.00,,---,0.00,VWS V14.00,2013-01-22 23:47:00,
2013-01-22 18:52:00,14.4,14.4,29.44,West,265,3.6,3.6,100,0.00,,---,0.00,VWS V14.00,2013-01-22 23:52:00,
2013-01-22 18:57:00,14.4,14.4,29.44,West,270,0.0,3.6,100,0.00,,---,0.00,VWS V14.00,2013-01-22 23:57:00,
2013-01-22 19:02:00,14.5,14.5,29.44,West,261,0.0,0.0,100,0.00,,---,0.00,VWS V14.00,2013-01-23 00:02:00,
2013-01-22 19:07:00,14.5,14.5,29.44,West,273,3.1,5.4,100,0.00,,---,0.00,VWS V14.00,2013-01-23 00:07:00,
2013-01-22 19:12:00,14.5,14.5,29.44,West,269,2.2,3.1,100,0.00,,---,0.00,VWS V14.00,2013-01-23 00:12:00,
2013-01-22 19:17:00,14.5,14.5,29.44,WSW,254,0.0,0.0,100,0.00,,---,0.00,VWS V14.00,2013-01-23 00:17:00,
2013-01-22 19:22:00,14.9,14.9,29.44,WSW,241,5.4,5.4,100,0.00,,---,0.00,VWS V14.00,2013-01-23 00:22:00,
2013-01-22 19:27:00,14.9,14.9,29.44,West,276,4.0,4.0,100,0.00,,---,0.00,VWS V14.00,2013-01-23 00:27:00,
2013-01-22 19:32:00,14.9,14.9,29.44,West,260,2.7,4.0,100,0.00,,---,0.00,VWS V14.00,2013-01-23 00:32:00,
2013-01-22 19:37:00,14.9,14.9,29.44,West,266,4.0,6.3,100,0.00,,---,0.00,VWS V14.00,2013-01-23 00:37:00,
2013-01-22 19:42:00,15.1,15.1,29.44,SSW,199,3.1,4.9,100,0.00,,---,0.00,VWS V14.00,2013-01-23 00:42:00,
2013-01-22 19:47:00,15.1,15.1,29.44,WSW,253,5.4,5.8,100,0.00,,---,0.00,VWS V14.00,2013-01-23 00:47:00,
2013-01-22 19:52:00,15.1,15.1,29.41,West,272,3.1,3.6,100,0.00,,---,0.00,VWS V14.00,2013-01-23 00:52:00,
2013-01-22 19:57:00,15.1,15.1,29.41,SW,224,3.6,7.6,100,0.00,,---,0.00,VWS V14.00,2013-01-23 00:57:00,
2013-01-22 20:02:00,15.1,15.1,29.41,WSW,257,3.6,6.7,100,0.00,,---,0.00,VWS V14.00,2013-01-23 01:02:00,
2013-01-22 20:07:00,15.3,15.3,29.44,West,267,3.1,3.1,100,0.00,,---,0.00,VWS V14.00,2013-01-23 01:07:00,
2013-01-22 20:12:00,15.3,15.3,29.44,West,270,3.6,3.6,100,0.00,,---,0.00,VWS V14.00,2013-01-23 01:12:00,
2013-01-22 20:17:00,15.3,15.3,29.44,WSW,253,4.0,4.0,100,0.00,,---,0.00,VWS V14.00,2013-01-23 01:17:00,
2013-01-22 20:22:00,15.3,15.3,29.44,West,270,5.4,5.4,100,0.00,,---,0.00,VWS V14.00,2013-01-23 01:22:00,
2013-01-22 20:27:00,15.3,15.3,29.44,West,259,4.9,5.8,100,0.00,,---,0.00,VWS V14.00,2013-01-23 01:27:00,
2013-01-22 20:32:00,15.3,15.3,29.44,SW,224,5.4,5.4,100,0.00,,---,0.00,VWS V14.00,2013-01-23 01:32:00,
2013-01-22 20:37:00,15.3,15.3,29.44,West,281,2.7,5.4,100,0.00,,---,0.00,VWS V14.00,2013-01-23 01:37:00,
2013-01-22 20:42:00,15.3,15.3,29.44,SW,229,2.7,4.0,100,0.00,,---,0.00,VWS V14.00,2013-01-23 01:42:00,
2013-01-22 20:47:00,15.3,15.3,29.44,SW,217,4.0,5.4,100,0.00,,---,0.00,VWS V14.00,2013-01-23 01:47:00,
2013-01-22 20:52:00,15.3,15.3,29.44,WNW,301,5.8,5.8,100,0.00,,---,0.00,VWS V14.00,2013-01-23 01:52:00,
2013-01-22 20:57:00,15.1,15.1,29.44,WNW,290,4.9,4.9,100,0.00,,---,0.00,VWS V14.00,2013-01-23 01:57:00,
2013-01-22 21:02:00,15.1,15.1,29.44,West,276,8.1,8.1,100,0.00,,---,0.00,VWS V14.00,2013-01-23 02:02:00,
2013-01-22 21:07:00,15.1,15.1,29.44,WSW,240,6.3,6.3,100,0.00,,---,0.00,VWS V14.00,2013-01-23 02:07:00,
2013-01-22 21:12:00,15.1,15.1,29.44,WNW,286,3.1,3.1,100,0.00,,---,0.00,VWS V14.00,2013-01-23 02:12:00,
2013-01-22 21:17:00,15.1,15.1,29.44,West,280,3.1,3.6,100,0.00,,---,0.00,VWS V14.00,2013-01-23 02:17:00,
2013-01-22 21:22:00,15.1,15.1,29.44,WNW,290,5.4,5.4,100,0.00,,---,0.00,VWS V14.00,2013-01-23 02:22:00,
2013-01-22 21:28:00,14.9,14.9,29.44,West,269,3.1,5.4,100,0.00,,---,0.00,VWS V14.00,2013-01-23 02:28:00,
2013-01-22 21:33:00,14.9,14.9,29.44,West,262,0.0,4.0,100,0.00,,---,0.00,VWS V14.00,2013-01-23 02:33:00,
2013-01-22 21:38:00,14.9,14.9,29.44,West,272,0.0,5.4,100,0.00,,---,0.00,VWS V14.00,2013-01-23 02:38:00,
2013-01-22 21:43:00,15.1,15.1,29.44,West,266,3.1,3.1,100,0.00,,---,0.00,VWS V14.00,2013-01-23 02:43:00,
2013-01-22 21:48:00,15.1,15.1,29.44,WNW,295,4.9,4.9,100,0.00,,---,0.00,VWS V14.00,2013-01-23 02:48:00,
2013-01-22 21:53:00,15.1,15.1,29.44,West,280,3.6,3.6,100,0.00,,---,0.00,VWS V14.00,2013-01-23 02:53:00,
2013-01-22 21:58:00,15.1,15.1,29.44,WNW,293,3.6,3.6,100,0.00,,---,0.00,VWS V14.00,2013-01-23 02:58:00,
2013-01-22 22:03:00,15.1,15.1,29.44,West,267,2.7,2.7,100,0.00,,---,0.00,VWS V14.00,2013-01-23 03:03:00,
2013-01-22 22:08:00,14.9,14.9,29.44,WSW,237,3.1,4.0,100,0.00,,---,0.00,VWS V14.00,2013-01-23 03:08:00,
2013-01-22 22:13:00,15.1,15.1,29.44,WSW,248,0.0,3.1,100,0.00,,---,0.00,VWS V14.00,2013-01-23 03:13:00,
2013-01-22 22:18:00,14.9,14.9,29.44,WNW,288,4.0,4.0,100,0.00,,---,0.00,VWS V14.00,2013-01-23 03:18:00,
2013-01-22 22:23:00,14.9,14.9,29.44,NW,314,2.2,2.2,100,0.00,,---,0.00,VWS V14.00,2013-01-23 03:23:00,
2013-01-22 22:28:00,14.9,14.9,29.44,WNW,292,2.7,4.9,100,0.00,,---,0.00,VWS V14.00,2013-01-23 03:28:00,
2013-01-22 22:33:00,14.9,14.9,29.44,WNW,283,4.0,4.0,100,0.00,,---,0.00,VWS V14.00,2013-01-23 03:33:00,
2013-01-22 22:38:00,14.9,14.9,29.44,West,271,3.6,3.6,100,0.00,,---,0.00,VWS V14.00,2013-01-23 03:38:00,
2013-01-22 22:43:00,14.9,14.9,29.44,West,263,3.6,5.4,100,0.00,,---,0.00,VWS V14.00,2013-01-23 03:43:00,
2013-01-22 22:48:00,14.9,14.9,29.44,WNW,295,8.7,8.7,100,0.00,,---,0.00,VWS V14.00,2013-01-23 03:48:00,
2013-01-22 22:53:00,14.9,14.9,29.44,West,274,3.1,3.1,100,0.00,,---,0.00,VWS V14.00,2013-01-23 03:53:00,
2013-01-22 22:58:00,14.9,14.9,29.44,SSW,202,3.6,4.0,100,0.00,,---,0.00,VWS V14.00,2013-01-23 03:58:00,
2013-01-22 23:03:00,14.7,14.7,29.44,SW,232,5.8,5.8,100,0.00,,---,0.00,VWS V14.00,2013-01-23 04:03:00,
2013-01-22 23:08:00,14.7,14.7,29.44,West,281,0.0,0.0,100,0.00,,---,0.00,VWS V14.00,2013-01-23 04:08:00,
2013-01-22 23:13:00,14.7,14.7,29.44,WSW,251,2.7,2.7,100,0.00,,---,0.00,VWS V14.00,2013-01-23 04:13:00,
2013-01-22 23:18:00,14.7,14.7,29.44,WNW,289,4.9,4.9,100,0.00,,---,0.00,VWS V14.00,2013-01-23 04:18:00,
2013-01-22 23:23:00,14.7,14.7,29.44,WSW,254,3.6,3.6,100,0.00,,---,0.00,VWS V14.00,2013-01-23 04:23:00,
2013-01-22 23:28:00,14.7,14.7,29.44,NW,308,5.8,5.8,100,0.00,,---,0.00,VWS V14.00,2013-01-23 04:28:00,
2013-01-22 23:33:00,14.7,14.7,29.44,WNW,292,4.0,4.9,100,0.00,,---,0.00,VWS V14.00,2013-01-23 04:33:00,
2013-01-22 23:38:00,14.7,14.7,29.44,West,280,3.6,3.6,100,0.00,,---,0.00,VWS V14.00,2013-01-23 04:38:00,
2013-01-22 23:43:00,14.5,14.5,29.44,West,278,3.1,6.3,100,0.00,,---,0.00,VWS V14.00,2013-01-23 04:43:00,
2013-01-22 23:48:00,14.5,14.5,29.44,WNW,297,4.0,4.0,100,0.00,,---,0.00,VWS V14.00,2013-01-23 04:48:00,
2013-01-22 23:53:00,14.4,14.4,29.44,West,279,3.1,3.6,100,0.00,,---,0.00,VWS V14.00,2013-01-23 04:53:00,
2013-01-22 23:58:00,14.4,14.4,29.44,WSW,254,3.1,4.0,100,0.00,,---,0.00,VWS V14.00,2013-01-23 04:58:00,